DW0809 Weather Reports


Display with metric or nautical units.
time (UTC)temp
F
wind
direction
speed
MPH
gust
MPH
rain 1hr
in
rain 24hr
in
rain mn
in
humidity
%
barometer
mb
20260509144516 68 0.0 0.0 0.00 0.00 0.00 43 1009.7
20260509143516 67 0.0 0.0 0.00 0.00 0.00 43 1009.6
20260509142516 66 0.0 0.0 0.00 0.00 0.00 44 1009.8
20260509141516 65 0.0 0.0 0.00 0.00 0.00 46 1009.8
20260509140516 63 0.0 0.0 0.00 0.00 0.00 48 1009.8
20260509135516 62 0.0 0.0 0.00 0.00 0.00 49 1009.8
20260509134516 61 0.0 0.0 0.00 0.00 0.00 51 1009.7
20260509133516 60 0.0 0.0 0.00 0.00 0.00 51 1009.5
20260509132516 59 0.0 0.0 0.00 0.00 0.00 54 1009.6
20260509131557 58 0.0 0.0 0.00 0.00 0.00 55 1009.5
20260509104536 53 0.0 0.0 0.00 0.00 0.00 61 1008.8
20260509103516 53 0.0 0.0 0.00 0.00 0.00 61 1008.8
20260509102516 53 0.0 0.0 0.00 0.00 0.00 61 1008.8
20260509101516 53 0.0 0.0 0.00 0.00 0.00 61 1008.7
20260509100516 54 0.0 0.0 0.00 0.00 0.00 60 1008.7
20260509095516 54 0.0 0.0 0.00 0.00 0.00 57 1008.9
20260509094536 54 0.0 0.0 0.00 0.00 0.00 56 1008.8
20260509093516 54 0.0 0.0 0.00 0.00 0.00 56 1008.9
20260509092536 54 0.0 0.0 0.00 0.00 0.00 57 1008.9
20260509091516 55 0.0 0.0 0.00 0.00 0.00 55 1008.9
20260509090516 55 0.0 0.0 0.00 0.00 0.00 53 1008.9
20260509085516 56 0.0 0.0 0.00 0.00 0.00 52 1009.0
20260509084516 56 0.0 0.0 0.00 0.00 0.00 50 1008.8
20260509083516 56 0.0 0.0 0.00 0.00 0.00 51 1008.7
20260509082516 56 0.0 0.0 0.00 0.00 0.00 50 1008.7
20260509081515 57 0.0 0.0 0.00 0.00 0.00 50 1008.8
20260509080515 57 0.0 0.0 0.00 0.00 0.00 50 1008.8
20260509075515 58 0.0 0.0 0.00 0.00 0.00 49 1008.8
20260509074515 58 0.0 0.0 0.00 0.00 0.00 48 1008.8
20260509073515 58 0.0 0.0 0.00 0.00 0.00 47 1008.8
20260509072515 59 0.0 0.0 0.00 0.00 0.00 47 1008.9
20260509071515 60 0.0 0.0 0.00 0.00 0.00 46 1008.9
20260509070516 60 0.0 0.0 0.00 0.00 0.00 44 1009.1
20260509065516 61 0.0 0.0 0.00 0.00 0.00 44 1009.0
20260509064516 61 0.0 0.0 0.00 0.00 0.00 43 1009.2
20260509063516 62 0.0 0.0 0.00 0.00 0.00 42 1009.3
20260509062516 62 0.0 0.0 0.00 0.00 0.00 42 1009.2
20260509061516 63 0.0 0.0 0.00 0.00 0.00 41 1009.3
20260509060515 63 0.0 0.0 0.00 0.00 0.00 40 1009.2
20260509055515 64 0.0 0.0 0.00 0.00 0.00 40 1009.2
20260509054515 64 0.0 0.0 0.00 0.00 0.00 40 1009.0
20260509053515 63 0.0 0.0 0.00 0.00 0.00 41 1008.9
20260509052535 63 0.0 0.0 0.00 0.00 0.00 41 1008.8
20260509051516 63 0.0 0.0 0.00 0.00 0.00 41 1008.7
20260509050555 63 0.0 0.0 0.00 0.00 0.00 41 1008.7
20260509045516 64 0.0 0.0 0.00 0.00 0.00 41 1008.8
20260509044516 63 0.0 0.0 0.00 0.00 0.00 41 1008.7
20260509043516 63 0.0 0.0 0.00 0.00 0.00 42 1008.3
20260509042516 62 0.0 0.0 0.00 0.00 0.00 45 1008.3
20260509041536 62 0.0 0.0 0.00 0.00 0.00 47 1008.3
20260509040516 62 0.0 0.0 0.00 0.00 0.00 48 1008.2
20260509035516 63 0.0 0.0 0.00 0.00 0.00 50 1008.2
20260509034516 64 0.0 0.0 0.00 0.00 0.00 49 1008.2
20260509033535 65 0.0 0.0 0.00 0.00 0.00 46 1008.2
20260509032516 66 0.0 0.0 0.00 0.00 0.00 44 1008.1
20260509031516 67 0.0 0.0 0.00 0.00 0.00 43 1008.0
20260509030535 68 0.0 0.0 0.00 0.00 0.00 40 1007.8
20260509025516 68 0.0 0.0 0.00 0.00 0.00 39 1007.7
20260509024516 69 0.0 0.0 0.00 0.00 0.00 39 1007.6
20260509023516 69 0.0 0.0 0.00 0.00 0.00 38 1007.4
20260509022516 70 0.0 0.0 0.00 0.00 0.00 38 1007.3
20260509021515 70 0.0 0.0 0.00 0.00 0.00 38 1007.1
20260509020515 71 0.0 0.0 0.00 0.00 0.00 37 1007.1
20260509015516 71 0.0 0.0 0.00 0.00 0.00 37 1007.0
20260509014515 72 0.0 0.0 0.00 0.00 0.00 37 1007.0
20260509013536 72 0.0 0.0 0.00 0.00 0.00 36 1006.9
20260509012516 72 0.0 0.0 0.00 0.00 0.00 36 1006.8
20260509011515 73 0.0 0.0 0.00 0.00 0.00 35 1006.8
20260509010515 74 0.0 0.0 0.00 0.00 0.00 35 1006.6
20260509005516 74 0.0 0.0 0.00 0.00 0.00 34 1006.5
20260509004516 74 0.0 0.0 0.00 0.00 0.00 34 1006.5
20260509003515 75 0.0 0.0 0.00 0.00 0.00 34 1006.4
20260509002515 75 0.0 0.0 0.00 0.00 0.00 34 1006.4
20260509001515 75 0.0 0.0 0.00 0.00 0.00 34 1006.4
20260509000515 75 0.0 0.0 0.00 0.00 0.00 33 1006.4
20260508235515 75 0.0 0.0 0.00 0.00 0.00 34 1006.5
20260508234517 75 0.0 0.0 0.00 0.00 0.00 33 1006.6
20260508233517 75 0.0 0.0 0.00 0.00 0.00 33 1006.6
20260508232518 75 0.0 0.0 0.00 0.00 0.00 33 1006.7
20260508231517 76 0.0 0.0 0.00 0.00 0.00 33 1006.7
20260508230517 76 0.0 0.0 0.00 0.00 0.00 32 1006.8
20260508225518 76 0.0 0.0 0.00 0.00 0.00 31 1006.9
20260508224515 77 0.0 0.0 0.00 0.00 0.00 30 1007.0
20260508223517 77 0.0 0.0 0.00 0.00 0.00 32 1007.0
20260508222517 76 0.0 0.0 0.00 0.00 0.00 30 1007.1
20260508221517 77 0.0 0.0 0.00 0.00 0.00 30 1007.2
20260508220517 77 0.0 0.0 0.00 0.00 0.00 28 1007.3
20260508215537 76 0.0 0.0 0.00 0.00 0.00 28 1007.3
20260508214518 76 0.0 0.0 0.00 0.00 0.00 27 1007.3
20260508213517 77 0.0 0.0 0.00 0.00 0.00 26 1007.5
20260508212517 78 0.0 0.0 0.00 0.00 0.00 27 1007.6
20260508211517 77 0.0 0.0 0.00 0.00 0.00 29 1007.8
20260508210517 78 0.0 0.0 0.00 0.00 0.00 27 1007.8
20260508205517 77 0.0 0.0 0.00 0.00 0.00 29 1008.1
20260508204517 77 0.0 0.0 0.00 0.00 0.00 27 1008.2
20260508203517 78 0.0 0.0 0.00 0.00 0.00 26 1008.4
20260508202517 79 0.0 0.0 0.00 0.00 0.00 27 1008.6
20260508201517 77 0.0 0.0 0.00 0.00 0.00 30 1008.8
20260508200517 78 0.0 0.0 0.00 0.00 0.00 26 1008.8
20260508195517 79 0.0 0.0 0.00 0.00 0.00 27 1009.0
20260508194517 78 0.0 0.0 0.00 0.00 0.00 26 1009.1
20260508193517 76 0.0 0.0 0.00 0.00 0.00 29 1009.1
20260508192517 76 0.0 0.0 0.00 0.00 0.00 26 1009.3
20260508191537 76 0.0 0.0 0.00 0.00 0.00 25 1009.4
20260508190517 76 0.0 0.0 0.00 0.00 0.00 27 1009.5
20260508185517 79 0.0 0.0 0.00 0.00 0.00 29 1009.7
20260508184517 78 0.0 0.0 0.00 0.00 0.00 29 1009.7
20260508183517 76 0.0 0.0 0.00 0.00 0.00 26 1009.8
20260508182517 78 0.0 0.0 0.00 0.00 0.00 22 1009.9
20260508181517 78 0.0 0.0 0.00 0.00 0.00 26 1010.0
20260508180517 77 0.0 0.0 0.00 0.00 0.00 30 1010.1
20260508175517 76 0.0 0.0 0.00 0.00 0.00 26 1010.2
20260508174517 76 0.0 0.0 0.00 0.00 0.00 25 1010.3
20260508173517 77 0.0 0.0 0.00 0.00 0.00 27 1010.4
20260508172517 77 0.0 0.0 0.00 0.00 0.00 28 1010.5
20260508171517 76 0.0 0.0 0.00 0.00 0.00 28 1010.6
20260508170537 75 0.0 0.0 0.00 0.00 0.00 26 1010.6
20260508165617 75 0.0 0.0 0.00 0.00 0.00 28 1010.6
20260508164537 77 0.0 0.0 0.00 0.00 0.00 28 1010.7
20260508163517 76 0.0 0.0 0.00 0.00 0.00 30 1010.8
20260508162537 74 0.0 0.0 0.00 0.00 0.00 37 1010.7
20260508161517 72 0.0 0.0 0.00 0.00 0.00 39 1010.7
20260508160517 70 0.0 0.0 0.00 0.00 0.00 38 1010.8
20260508155516 68 0.0 0.0 0.00 0.00 0.00 42 1010.8
20260508154537 67 0.0 0.0 0.00 0.00 0.00 49 1010.8
20260508153516 66 0.0 0.0 0.00 0.00 0.00 51 1010.8
20260508152536 64 0.0 0.0 0.00 0.00 0.00 51 1010.7
20260508151516 64 0.0 0.0 0.00 0.00 0.00 51 1010.7
20260508150516 64 0.0 0.0 0.00 0.00 0.00 51 1010.8
20260508145516 63 0.0 0.0 0.00 0.00 0.00 53 1010.8